Probability
42 45 39 35 35 32 32 29 26 26 26 23 23 10 10 13 16 10 10 6 3 3 3 3 3 0 0 0 0 0 0 0 0 0 0 0 0 0 0 0 0 0 0
48 45 42 39 35 29 26 26 26 19 13 13 13 10 10 10 13 10 10 6 3 3 3 0 0 0 0 0 0 0 0 0 0 0 0 0 0 0 0 0 0 0 0
45 45 39 32 26 26 26 26 26 10 13 13 10 6 3 6 6 6 6 6 3 3 3 0 0 0 0 0 0 0 0 0 0 0 0 0 0 0 0 0 0 0 0
48 39 35 29 26 26 23 26 23 13 10 6 3 6 3 3 3 3 3 3 3 3 0 0 0 0 0 0 0 0 0 0 0 0 0 0 0 0 0 0 0 0 0
48 39 32 29 23 23 23 23 16 16 10 3 6 6 6 3 3 3 3 3 3 3 0 0 0 0 0 0 0 0 0 0 0 0 0 0 0 0 0 0 0 0 0
42 42 32 29 23 19 10 6 6 6 6 6 6 6 6 6 6 3 3 3 3 3 0 0 0 0 0 0 0 0 0 0 0 0 0 0 0 0 0 0 0 0 0
42 42 32 26 19 13 6 3 6 6 6 3 3 3 3 3 6 3 3 3 3 3 3 0 0 0 0 0 0 0 0 0 0 0 0 0 0 0 0 0 0 0 0
45 39 29 23 16 6 6 6 6 6 3 3 3 3 3 3 3 3 3 0 3 3 0 0 0 0 0 0 0 0 0 0 0 0 0 0 0 0 0 0 0 0 0
42 35 23 19 10 6 6 6 6 3 3 3 3 3 3 3 3 3 0 0 0 0 0 0 0 0 0 0 0 0 0 0 0 0 0 0 0 0 0 0 0 0 0
35 29 29 16 10 10 6 6 6 3 3 3 3 3 3 3 3 3 0 0 0 0 0 0 0 0 0 0 0 0 0 0 0 0 0 0 0 0 0 0 0 0 0
29 26 16 10 3 10 6 6 3 3 3 3 3 3 3 3 3 0 0 0 0 0 0 0 0 0 0 0 0 0 0 0 0 0 0 0 0 0 0 0 0 0 0
26 19 19 10 6 6 6 6 0 3 3 3 3 3 3 0 0 0 0 0 0 0 0 0 0 0 0 0 0 0 0 0 0 0 0 0 0 0 0 0 0 0 0
23 19 19 13 6 3 6 6 3 0 3 3 3 0 0 0 0 0 0 0 0 0 0 0 0 0 0 0 0 0 0 0 0 0 0 0 0 0 0 0 0 0 0
19 16 16 10 10 3 6 3 3 3 3 3 3 0 0 0 0 0 0 0 0 0 0 0 0 0 0 0 0 0 0 0 0 0 0 0 0 0 0 0 0 0 0
23 19 19 10 6 6 3 3 3 3 0 0 0 0 0 0 0 0 0 0 0 0 0 0 0 0 0 0 0 0 0 0 0 0 0 0 0 0 0 0 0 0 0
19 13 13 10 6 6 6 3 3 3 0 0 0 0 0 0 0 0 0 0 0 0 0 0 0 0 0 0 0 0 0 0 0 0 0 0 0 0 0 0 0 0 0
23 16 10 6 6 6 6 6 3 3 0 0 0 0 0 0 0 0 0 0 0 0 0 0 0 0 0 0 0 0 0 0 0 0 0 0 0 0 0 0 0 0 0
23 19 10 6 6 6 6 6 6 3 0 0 0 0 0 0 0 0 0 0 0 0 0 0 0 0 0 0 0 0 0 0 0 0 0 0 0 0 0 0 0 0 0
26 16 10 6 6 6 6 6 3 3 0 0 0 0 0 0 0 0 0 0 0 0 0 0 0 0 0 0 0 0 0 0 0 0 0 0 0 0 0 0 0 0 0
19 16 13 10 6 6 3 0 0 0 0 0 0 0 0 0 0 0 0 0 0 0 0 0 0 0 0 0 0 0 0 0 0 0 0 0 0 0 0 0 0 0 0
13 13 10 3 3 3 3 0 0 0 0 0 0 0 0 0 0 0 0 0 0 0 0 0 0 0 0 0 0 0 0 0 0 0 0 0 0 0 0 0 0 0 0
10 6 6 6 3 3 3 3 0 0 0 0 0 0 0 0 0 0 0 0 0 0 0 0 0 0 0 0 0 0 0 0 0 0 0 0 0 0 0 0 0 0 0
6 3 3 3 3 3 3 3 0 0 0 0 0 0 0 0 0 0 0 0 0 0 0 0 0 0 0 0 0 0 0 0 0 0 0 0 0 0 0 0 0 0 0
6 6 3 3 3 0 0 0 0 0 0 0 0 0 0 0 0 0 0 0 0 0 0 0 0 0 0 0 0 0 0 0 0 0 0 0 0 0 0 0 0 0 0
6 6 6 3 3 0 0 0 0 0 0 0 0 0 0 0 0 0 0 0 0 0 0 0 0 0 0 0 0 0 0 0 0 0 0 0 0 0 0 0 0 0 0
6 6 6 3 3 0 0 0 0 0 0 0 0 0 0 0 0 0 0 0 0 0 0 0 0 0 0 0 0 0 0 0 0 0 0 0 0 0 0 0 0 0 0
Height
5911 5908 5905 5903 5901 5898 5896 5894 5892 5890 5888 5887 5886 5885 5884 5883 5881 5880 5879 5877 5876 5875 5873 5871 5870 5868 5866 5865 5863 5862 5860 5858 5857 5855 5854 5852 5850 5848 5846 5844 5842 5840 5838
5909 5907 5905 5902 5900 5897 5895 5893 5891 5889 5887 5885 5884 5883 5882 5880 5879 5878 5876 5875 5873 5871 5870 5868 5866 5865 5863 5861 5859 5857 5855 5854 5852 5851 5849 5847 5846 5843 5841 5839 5837 5834 5832
5908 5906 5904 5901 5899 5896 5893 5891 5889 5887 5886 5884 5882 5881 5879 5878 5876 5875 5873 5872 5870 5868 5866 5865 5863 5861 5859 5857 5855 5853 5851 5849 5848 5846 5844 5842 5840 5838 5836 5834 5831 5829 5826
5907 5904 5902 5900 5897 5895 5892 5890 5888 5886 5884 5882 5880 5879 5877 5875 5874 5872 5870 5868 5866 5865 5863 5861 5859 5857 5855 5853 5851 5849 5847 5845 5843 5841 5839 5837 5835 5833 5831 5828 5825 5823 5820
5905 5902 5900 5898 5895 5893 5890 5888 5886 5884 5882 5880 5878 5876 5875 5873 5871 5869 5867 5865 5863 5861 5859 5857 5855 5853 5851 5849 5847 5844 5842 5840 5838 5836 5834 5832 5830 5828 5825 5823 5820 5817 5814
5902 5900 5897 5895 5893 5890 5888 5885 5883 5881 5879 5878 5876 5874 5872 5870 5868 5866 5864 5862 5859 5857 5856 5853 5851 5849 5847 5844 5842 5840 5838 5836 5833 5831 5829 5827 5825 5822 5820 5817 5814 5811 5808
5900 5897 5895 5892 5890 5887 5885 5882 5880 5878 5876 5875 5873 5871 5869 5867 5865 5863 5860 5858 5856 5854 5852 5850 5847 5845 5843 5840 5838 5836 5833 5831 5829 5827 5824 5822 5819 5817 5814 5811 5808 5805 5802
5896 5895 5892 5889 5887 5884 5882 5880 5878 5876 5874 5872 5870 5868 5866 5864 5862 5859 5857 5855 5852 5850 5848 5846 5844 5841 5839 5836 5834 5831 5829 5826 5824 5822 5819 5817 5814 5811 5808 5805 5801 5798 5795
5893 5891 5889 5886 5884 5881 5879 5877 5875 5873 5871 5869 5867 5864 5862 5860 5858 5856 5853 5851 5849 5846 5844 5842 5840 5837 5835 5832 5829 5827 5824 5822 5819 5816 5814 5811 5808 5805 5802 5799 5795 5791 5788
5888 5887 5885 5883 5880 5878 5875 5873 5871 5869 5867 5865 5863 5861 5859 5857 5854 5852 5849 5847 5845 5842 5840 5838 5835 5833 5830 5827 5825 5822 5819 5817 5814 5811 5808 5805 5802 5799 5796 5792 5789 5785 5781
5883 5882 5880 5878 5876 5874 5871 5870 5868 5866 5864 5861 5859 5857 5855 5853 5850 5848 5845 5843 5840 5838 5836 5833 5831 5828 5825 5822 5820 5817 5814 5811 5808 5805 5803 5799 5796 5793 5789 5786 5782 5778 5774
5878 5877 5875 5874 5872 5870 5867 5866 5864 5862 5860 5858 5856 5853 5851 5849 5846 5844 5841 5839 5836 5834 5831 5828 5826 5823 5820 5817 5814 5811 5809 5806 5803 5799 5796 5793 5790 5786 5783 5779 5775 5771 5767
5872 5871 5870 5869 5867 5865 5863 5861 5859 5857 5856 5853 5851 5849 5847 5844 5842 5839 5836 5834 5831 5829 5826 5823 5820 5817 5815 5812 5809 5805 5802 5800 5796 5793 5790 5786 5783 5779 5776 5772 5768 5764 5760
5866 5865 5864 5863 5862 5860 5858 5857 5855 5853 5851 5848 5846 5844 5841 5839 5836 5834 5831 5828 5826 5823 5821 5818 5815 5812 5809 5806 5802 5799 5796 5793 5790 5787 5783 5780 5777 5773 5769 5765 5761 5757 5753
5860 5859 5858 5857 5856 5855 5853 5851 5849 5847 5845 5843 5841 5838 5836 5833 5830 5828 5825 5823 5820 5817 5815 5812 5809 5806 5803 5799 5796 5793 5790 5786 5783 5780 5777 5773 5769 5766 5762 5758 5754 5750 5746
5854 5853 5852 5851 5850 5849 5847 5846 5844 5842 5840 5837 5835 5833 5830 5827 5824 5822 5819 5817 5814 5811 5808 5805 5802 5799 5796 5793 5789 5786 5783 5779 5776 5773 5769 5766 5762 5758 5754 5750 5746 5742 5738
5847 5846 5846 5845 5844 5842 5841 5839 5837 5835 5833 5831 5828 5826 5823 5820 5818 5815 5813 5810 5807 5804 5802 5799 5795 5792 5789 5786 5782 5779 5776 5772 5769 5765 5762 5758 5754 5750 5746 5743 5739 5735 5731
5840 5839 5839 5838 5837 5835 5834 5832 5830 5828 5826 5824 5821 5819 5816 5814 5811 5808 5806 5803 5800 5798 5795 5792 5788 5785 5782 5778 5775 5771 5768 5765 5761 5757 5754 5750 5746 5742 5738 5735 5731 5727 5723
5832 5832 5831 5830 5829 5828 5826 5824 5822 5821 5819 5816 5814 5811 5809 5806 5804 5802 5799 5796 5793 5790 5787 5784 5781 5778 5774 5771 5767 5764 5760 5757 5753 5749 5746 5742 5738 5734 5731 5727 5723 5719 5716
5824 5824 5823 5822 5821 5820 5818 5817 5815 5813 5811 5808 5806 5804 5801 5799 5797 5794 5791 5789 5786 5782 5779 5776 5773 5770 5766 5763 5760 5756 5753 5749 5745 5741 5738 5734 5730 5727 5723 5719 5715 5712 5708
5815 5815 5814 5814 5813 5812 5810 5809 5807 5805 5803 5800 5798 5796 5794 5792 5789 5786 5783 5780 5778 5775 5772 5769 5765 5762 5759 5755 5752 5748 5745 5741 5737 5734 5730 5726 5722 5719 5715 5711 5707 5704 5700
5806 5805 5805 5805 5804 5803 5801 5800 5798 5796 5794 5792 5790 5788 5786 5783 5781 5778 5775 5772 5769 5766 5763 5760 5757 5754 5751 5747 5744 5740 5737 5733 5729 5726 5722 5718 5715 5711 5707 5703 5699 5696 5692
5796 5795 5795 5795 5794 5793 5792 5790 5789 5787 5785 5783 5781 5779 5777 5775 5772 5770 5767 5764 5761 5758 5755 5752 5749 5746 5742 5739 5736 5732 5729 5725 5721 5717 5714 5710 5706 5703 5699 5695 5691 5687 5684
5785 5785 5785 5785 5784 5783 5782 5780 5779 5777 5776 5774 5772 5770 5768 5766 5764 5761 5758 5755 5753 5750 5747 5743 5740 5737 5734 5731 5727 5724 5720 5717 5713 5709 5705 5702 5698 5694 5691 5687 5683 5679 5675
5775 5775 5775 5774 5773 5772 5771 5770 5769 5768 5766 5765 5763 5761 5759 5757 5755 5752 5750 5747 5744 5741 5738 5735 5732 5728 5725 5722 5718 5715 5712 5708 5704 5701 5697 5693 5690 5686 5682 5679 5675 5671 5667
5764 5764 5764 5763 5763 5762 5761 5760 5759 5758 5756 5755 5753 5751 5749 5747 5745 5743 5740 5737 5734 5731 5729 5725 5722 5719 5716 5712 5709 5706 5702 5699 5695 5692 5688 5684 5681 5677 5673 5670 5666 5662 5658
Wind_Speed
12 12 12 12 12 11 10 9 8 7 7 7 7 8 8 9 9 9 9 10 11 11 12 12 12 12 13 13 13 14 15 15 16 16 17 17 17 18 19 19 19 20 21
12 12 12 13 13 12 11 10 9 9 9 8 8 8 8 9 9 9 9 10 11 11 12 12 12 12 13 13 14 14 15 15 16 17 18 18 19 19 19 20 21 21 22
11 12 13 13 13 14 13 12 11 10 9 9 9 9 9 9 9 10 10 11 11 12 13 13 13 13 14 14 14 15 15 16 16 18 18 19 20 20 21 21 22 22 22
12 13 13 13 14 14 14 13 12 11 11 10 10 9 9 10 10 11 11 12 12 12 13 13 14 14 14 14 15 16 16 17 17 18 19 20 20 21 22 22 23 23 24
12 14 14 14 14 14 14 13 12 11 11 11 10 10 10 11 11 12 12 12 12 13 13 14 14 14 15 15 16 16 17 17 18 18 19 20 21 21 22 22 23 24 25
14 14 15 15 15 15 15 14 13 12 11 11 11 12 12 12 12 12 13 13 13 13 14 14 15 15 16 16 17 17 17 18 18 19 19 20 21 22 22 23 23 24 26
15 15 16 15 16 15 16 16 14 13 12 12 12 12 13 13 13 13 13 14 14 14 15 15 16 16 16 16 17 17 18 19 19 20 19 20 21 22 23 24 24 25 26
15 16 16 17 17 16 16 15 14 13 13 13 13 13 14 13 14 14 14 15 14 14 15 15 16 16 17 18 18 18 18 19 20 21 21 21 22 23 24 25 26 27 27
16 17 17 17 17 17 16 15 14 13 14 15 15 15 15 15 15 15 15 15 15 15 16 16 17 17 18 18 19 19 19 20 20 21 21 21 22 24 25 26 27 27 28
17 17 17 18 18 17 16 15 15 15 15 15 16 16 16 16 16 16 16 16 16 16 17 17 18 18 19 19 19 20 20 20 21 21 22 22 23 24 25 26 27 27 28
19 18 17 18 17 17 17 16 16 16 16 16 16 16 16 17 17 17 17 17 17 17 17 18 18 19 19 19 20 20 21 21 22 23 23 24 24 25 26 27 27 28 28
20 19 18 18 18 18 17 17 17 16 17 17 17 17 17 17 18 18 18 18 18 18 18 19 20 20 20 20 21 21 22 23 23 24 25 25 26 26 27 27 28 28 29
21 20 19 19 19 18 18 18 18 18 18 18 18 18 19 19 19 19 19 19 19 19 19 19 20 20 21 22 22 23 23 24 25 25 26 26 26 27 27 28 28 28 28
21 21 20 20 19 19 19 19 20 20 19 20 20 20 20 20 20 20 20 20 20 20 21 21 21 21 22 23 23 24 24 24 25 26 26 27 27 27 28 29 29 29 28
22 22 21 21 21 21 21 21 22 21 21 21 21 22 22 21 21 21 21 21 21 21 22 22 23 23 24 24 25 25 25 25 25 26 27 28 28 28 29 29 30 30 29
24 23 23 22 23 23 23 22 22 23 23 22 23 23 23 23 22 21 21 22 22 23 23 23 24 25 25 25 26 26 26 26 27 27 28 28 28 28 29 29 30 30 29
24 25 24 25 25 25 24 24 24 25 24 25 25 24 24 24 23 23 23 24 24 24 24 25 25 25 26 26 26 27 28 28 28 28 29 30 30 30 30 30 29 29 29
26 26 26 26 27 26 25 25 26 26 26 26 26 26 26 25 25 25 25 25 25 25 26 26 26 26 27 27 27 28 28 29 29 29 30 30 30 30 30 29 29 29 29
28 28 27 27 27 27 26 26 27 27 27 27 27 27 26 26 25 25 26 26 26 26 26 26 27 27 27 28 28 28 29 29 30 30 30 31 31 30 30 29 29 29 29
30 29 28 27 28 28 28 28 28 28 28 28 27 27 26 26 27 27 27 27 27 28 28 28 28 28 28 28 29 29 29 30 30 30 30 31 31 30 30 30 30 30 30
31 30 30 29 29 29 30 29 29 28 28 28 28 28 28 28 28 28 28 28 28 28 28 28 28 28 29 29 29 29 29 30 30 30 31 31 31 31 31 30 30 30 30
32 32 31 31 31 30 31 30 30 30 30 30 30 29 29 29 29 28 29 29 29 28 28 28 28 28 28 29 29 29 30 30 30 31 31 31 31 31 31 31 31 30 30
33 33 33 32 32 32 32 31 31 30 31 31 30 30 29 29 29 29 29 29 29 28 28 28 28 29 28 29 29 30 30 30 31 31 31 31 30 30 31 31 31 31 31
34 33 33 33 32 32 32 33 32 31 31 30 30 30 30 29 29 29 28 28 29 29 29 30 29 30 30 30 31 31 31 31 32 31 31 31 31 30 31 31 32 32 32
35 34 34 33 33 33 33 33 32 32 31 30 31 31 30 30 30 29 29 30 30 31 30 30 30 30 31 31 31 31 32 32 32 31 31 31 31 31 31 32 32 32 31
35 35 34 33 33 33 32 32 32 31 31 31 31 30 31 30 31 31 31 31 31 31 31 31 31 32 32 32 33 33 33 33 32 32 32 32 32 32 33 33 32 32 31
Wind_Direction
356 359 1 2 3 359 349 337 328 319 313 311 312 311 307 306 305 303 300 298 299 300 301 302 302 301 299 296 294 293 291 289 286 288 290 292 294 295 295 296 296 295 295
350 353 355 356 355 353 350 346 339 330 327 322 319 313 306 304 305 305 307 305 304 303 304 304 303 304 303 300 299 298 294 291 290 290 290 292 294 295 296 297 296 295 295
342 347 349 350 349 348 345 342 341 337 336 334 328 320 315 310 307 306 305 303 304 305 305 303 302 303 303 302 301 299 297 294 293 292 293 294 295 297 298 298 298 296 296
331 337 340 341 342 345 348 345 340 335 333 333 331 328 325 320 316 311 306 306 305 304 305 305 304 305 306 303 301 300 299 298 296 294 294 295 295 296 297 298 298 298 298
327 331 332 333 334 336 339 338 336 330 326 328 330 329 326 321 319 316 312 311 308 307 308 307 307 307 307 306 304 303 302 301 298 297 296 297 299 299 298 298 298 299 299
321 323 326 327 329 328 329 329 327 328 329 327 328 324 321 320 322 320 316 316 312 311 311 311 310 308 308 308 307 305 303 302 301 300 300 301 302 302 300 300 300 302 302
317 320 323 326 327 326 327 326 327 323 323 324 325 323 321 318 318 317 315 313 312 310 310 312 313 311 312 312 311 309 306 304 302 300 300 301 302 303 302 302 304 305 305
312 316 319 323 325 323 322 322 322 322 322 324 325 322 321 318 317 316 314 312 310 310 311 313 313 313 313 313 311 310 308 306 303 301 301 302 302 303 304 305 306 306 307
306 310 312 316 319 321 319 317 316 317 318 318 321 321 319 317 316 314 312 311 311 311 313 315 314 313 313 313 311 311 311 310 306 305 305 304 305 305 305 306 307 308 308
301 306 308 312 314 315 314 314 313 313 314 314 317 319 318 317 317 316 313 312 311 312 313 314 314 314 314 314 312 311 311 311 311 309 307 305 306 307 307 308 308 308 308
296 300 304 307 310 311 311 311 310 309 313 313 314 316 318 318 317 316 314 312 311 311 311 312 313 313 314 314 313 312 312 312 311 310 309 308 308 309 309 309 309 310 310
289 292 296 301 305 306 306 307 310 312 312 313 312 313 315 316 316 315 314 312 311 311 310 311 312 312 313 313 313 312 312 312 311 310 310 310 310 310 310 310 310 310 310
286 288 291 298 302 304 305 306 308 310 311 311 312 311 311 312 313 313 312 311 312 311 311 311 312 312 313 314 313 312 311 310 310 310 310 310 311 311 310 310 310 310 310
284 286 291 295 298 299 301 304 305 307 308 309 309 310 309 309 310 311 312 311 311 311 310 311 311 312 313 313 313 312 312 311 311 310 310 310 310 310 311 311 311 310 311
283 286 288 291 294 296 298 301 302 303 304 305 306 307 308 307 307 308 309 309 310 309 309 309 311 312 313 312 311 312 310 309 309 309 308 309 309 310 310 310 311 310 310
281 283 286 289 291 293 295 296 298 299 300 301 302 304 306 307 306 306 307 308 308 308 308 308 309 310 310 310 309 308 308 308 308 308 307 307 307 308 309 309 310 310 309
281 283 285 287 289 291 293 294 296 298 299 300 303 303 305 305 303 304 305 307 307 307 307 308 309 309 309 308 307 306 306 306 306 306 307 308 307 307 308 308 309 309 309
278 280 282 286 288 290 291 292 295 296 297 299 300 300 301 301 301 301 302 305 306 305 306 308 308 308 308 307 306 306 306 305 305 305 306 308 309 308 308 308 308 309 309
275 277 280 282 286 289 290 291 294 295 296 297 298 298 298 299 300 300 301 302 304 304 305 307 307 307 308 307 306 305 305 305 306 306 307 308 308 308 307 307 307 308 308
273 275 277 279 283 287 289 290 292 293 294 295 296 296 297 298 299 300 299 300 301 303 305 305 306 306 306 307 306 306 306 306 306 307 308 309 308 308 307 307 307 307 307
272 273 275 277 281 284 286 288 290 291 293 293 294 295 296 296 298 298 299 300 301 303 304 304 304 305 305 305 305 306 307 308 309 309 309 309 308 306 306 306 307 307 306
272 273 274 276 278 281 283 286 287 288 290 291 291 293 294 295 297 298 299 299 300 301 301 302 303 304 304 304 305 306 307 308 308 308 308 307 306 306 306 306 307 307 306
271 272 275 277 278 279 281 284 285 286 287 289 290 291 293 295 297 298 298 298 299 300 300 301 302 303 303 304 306 307 307 307 307 307 308 307 306 305 305 306 306 306 306
271 274 275 276 278 279 280 281 282 283 285 286 288 291 292 294 295 296 298 299 300 300 299 299 300 301 301 303 304 304 305 306 306 306 306 306 304 304 304 305 306 306 306
270 274 277 278 278 278 280 279 280 282 283 284 286 287 289 291 293 295 296 298 298 298 298 299 300 300 301 302 303 303 304 305 305 305 305 304 303 303 304 305 305 306 306
271 273 275 276 277 277 278 279 279 280 282 283 284 285 287 289 292 294 295 296 296 296 297 299 301 301 301 301 301 302 302 303 303 303 303 303 302 302 303 304 304 304 304